User: anonymous   Login
Location: Unspecified
(0.0000°N, 0.0000°E)
Time: 12:41:08
(UTC+00:00)
Language:

RS-15 - Orbit

View from above orbital plane
View from above orbital plane
View from above satellite
View from above satellite

Ground track
Ground track

The orbit data is extracted from the following two-line orbital elements,

1 23439U 94085A   19084.92495583 -.00000048 +00000-0 -16160-3 0  9995
2 23439 064.8141 253.2032 0148194 129.4989 311.3601 11.27568263998331
Epoch (UTC): 25 March 2019 22:11:56
Eccentricity: 0.0148194
inclination: 64.8141°
perigee height: 1898 km
apogee height: 2147 km
right ascension of ascending node: 253.2032°
argument of perigee: 129.4989°
revolutions per day: 11.27568263
mean anomaly at epoch: 311.3601°
orbit number at epoch: 99833

The dashed part of the orbit path shows where the satellite is in the earth's shadow,  

DLR